Regional Weather Roundup
Issued by NWS Albany, NY

Home | Current Version | Previous Version | Text Only | Print | Product List | Glossary On
Versions: 1 2 3 4 5 6 7 8 9 10 11 12 13 14 15 16 17 18 19 20 21 22 23 24 25 26 27 28 29 30 31 32 33 34 35 36 37 38 39 40 41 42 43 44 45 46 47 48 49 50
000
ASUS41 KALY 021110
RWRALY

NEW YORK STATE HOURLY WEATHER ROUNDUP
NATIONAL WEATHER SERVICE ALBANY NY
700 AM EDT THU JUL 02 2015

NOTE: "FAIR" INDICATES FEW OR NO CLOUDS BELOW 12,000 FEET WITH NO
SIGNIFICANT WEATHER AND/OR NO OBSTRUCTIONS TO VISIBILITY.

NYZ032-033-038>043-046>054-057>066-NYZ062>081-021200-
EAST


CITY           SKY/WX    TMP DP  RH WIND       PRES   REMARKS
ALBANY         PTSUNNY   63  55  75 W5        29.90R
GLENS FALLS    MOSUNNY   58  56  93 SE3       29.87S
POUGHKEEPSIE   PTSUNNY   62  59  90 CALM      29.89R
NEWBURGH       PTSUNNY   61  59  94 CALM      29.91R
MONTGOMERY     CLOUDY    61  59  93 SW3       29.90R
WHITE PLAINS   MOSUNNY   65  60  84 NW8       29.89R
ISLIP          MOSUNNY   68  63  84 CALM      29.88R
NEW YORK CITY  MOSUNNY   71  57  61 NW5       29.89R
CENTRAL PARK   SUNNY     70  56  61 VRB3      29.92R
$$

NYZ005>009-017-018-044>046-055-056-021200-
CENTRAL


CITY           SKY/WX    TMP DP  RH WIND       PRES   REMARKS
FULTON         PTSUNNY   57  55  93 CALM      29.93R
SYRACUSE       CLOUDY    60  56  86 W7        29.93R
ROME           CLOUDY    57  55  93 NW5       29.93R
ELMIRA         CLOUDY    58  58 100 SW5       29.94R FOG
BINGHAMTON     CLOUDY    57  57 100 W3        29.95R FOG
MONTICELLO     CLOUDY    55  55 100 NW7       29.95R
$$

NYZ026>034-041>043-021200-
NORTH


CITY           SKY/WX    TMP DP  RH WIND       PRES   REMARKS
WATERTOWN      SUNNY     56  54  93 CALM      29.92R
FORT DRUM      NOT AVBL
MASSENA        SUNNY     56  49  77 W8        29.89R
SARANAC LAKE   CLOUDY    51  47  86 W7        29.88S
PLATTSBURGH    MOSUNNY   59  50  72 CALM      29.86S
$$

NYZ001>004-010>016-019>021-021200-
WEST


CITY           SKY/WX    TMP DP  RH WIND       PRES   REMARKS
NIAGARA FALLS  PTSUNNY   58  54  86 N7        29.95R
BUFFALO        PTSUNNY   59  55  87 N3        29.96R
DUNKIRK        PTSUNNY   60  56  86 NE6       29.96S
JAMESTOWN      CLOUDY    55  54  94 NW6       29.97S VSB<1/4
WELLSVILLE     CLOUDY    57  55  93 W3        29.99R FOG
ROCHESTER      CLOUDY    60  56  86 W5        29.96R
PENN YAN       CLOUDY    61  56  83 NW3       29.95R
$$

             KEY
       WCI = WIND CHILL INDEX
       VSB = VISIBILITY
       HX  = HEAT INDEX
$$



USA.gov is the U.S. government's official web portal to all federal, state and local government web resources and services.